Tracking 19242 objects as of 16-Aug-2018
HD Live streaming from Space Station
objects crossing your sky now

FENGYUN 1C DEB

Track FENGYUN 1C DEB now!
10-day predictions


NORAD ID: 29775
Int'l Code: 1999-025BR
Perigee: 571.9 km
Apogee: 660.4 km
Inclination: 99.0 °
Period: 96.9 minutes
Semi major axis: 6987 km
RCS: 0.032 m2 (small)
Launch date: May 10, 1999
Source: People's Republic of China (PRC)
Launch site: Taiyaun Space Center, China (TSC)

Note: This is SATELLITE DEBRIS
aabbcc
Your satellite tracking list
Your tracking list is empty




NASA's NSSDC Master Catalog

Two Line Element Set (TLE):
1 29775U 99025BR  18227.86183057  .00002506  00000-0  28140-3 0  9994
2 29775  99.0387 273.3394 0063353 128.6685 232.0219 14.86449658615977
Source of the keplerian elements: AFSPC